Other Public Products
Issued by NWS Grand Forks, ND

Home | Current Version | Previous Version | Graphics & Text | Print | Product List | Glossary On
Versions: 1 2 3 4 5 6 7 8 9 10 11 12 13 14 15 16 17 18 19 20 21 22 23 24 25 26 27 28 29 30 31 32 33 34 35 36 37 38 39 40 41 42 43 44 45 46 47 48 49 50
000
FPUS83 KFGF 091110
OPUFGF
PRAIRIE TO PINES WEATHER ROUNDUP
NATIONAL WEATHER SERVICE EASTERN NORTH DAKOTA/GRAND FORKS ND
500 AM CST FRI DEC 09 2016

 **SATELLITE DATA USED TO AUGMENT SKY COVER AT AUTOMATED STATIONS**
 *****  WEATHER ACROSS EASTERN NORTH DAKOTA  *****

CITY           SKY/WX    TMP DP  RH WIND       PRES   REMARKS
GRAND FORKS    CLOUDY     7  -1  70 NW13      30.56F WCI  -9
GRAND FORKS AF CLOUDY     3  -5  68 NW8       30.56F WCI -11
GRAND CITY NWS NOT AVBL
BUXTON         NOT AVBL
DEVILS LAKE    CLEAR     -7 -11  83 NW9       30.54S WCI -24
FARGO          CLOUDY     8   1  73 W7        30.57F WCI  -3
WAHPETON ARPT  CLOUDY     3  -2  78 W7        30.58F WCI  -9
$$

 *****  WEATHER ACROSS CENTRAL AND WESTERN NORTH DAKOTA  *****

CITY           SKY/WX    TMP DP  RH WIND       PRES   REMARKS
JAMESTOWN      CLEAR     -7 -11  83 NW9       30.53S WCI -24
BISMARCK       CLOUDY   -14 -17  87 CALM      30.56S
MINOT          CLOUDY    -9 -14  78 W9        30.54S WCI -26
MINOT AFB      CLOUDY   -12 -17  78 NW9       30.54S WCI -31
GARRISON         N/A    -15 -19  82 NW9       30.52F WCI -34
WILLISTON      CLOUDY   -17 -22  78 CALM      30.56S
DICKINSON      CLOUDY   -20 -26  74 CALM      30.42F
HETTINGER      CLOUDY   -18 -23  77 W3        30.43S
$$

 *****  OTHER OBSERVATIONS NORTHEAST NORTH DAKOTA  *****

CITY           SKY/WX    TMP DP  RH WIND       PRES   REMARKS
WALHALLA         N/A      1   1 100 NW7       30.57F WCI -11
LANGDON        CLOUDY    -6 -11  77 NW9       30.50S WCI -22
CAVALIER         N/A      5   0  78 N8        30.57S WCI  -8
GRAFTON        FLURRIES   7   0  72 NW10      30.59S WCI  -8
CANDO          FAIR      -9 -13  84 W7        30.56S WCI -24
FORT TOTTEN      N/A     -7 -11  83 W3        29.95
ROLLA          FAIR     -13 -18  77 S3        30.49F
RUGBY            N/A    -17 -22  76 W8        30.55R WCI -34
 ***** THE ABOVE OBSERVATIONS ARE NON NWS ARE NOT QUALITY
        CONTROLLED AND MAY MIS-REPORT RAIN FOR SNOW...
$$

 *****  OTHER OBSERVATIONS SOUTHEAST NORTH DAKOTA *****

CITY           SKY/WX    TMP DP  RH WIND       PRES   REMARKS
COOPERSTOWN    CLOUDY    -2  -6  84 NW9       30.53S WCI -18
VALLEY CITY    PTSUNNY   -4  -8  84 NW9       30.55S WCI -20
OAKES          NOT AVBL
GWINNER        FAIR      -2  -8  78 W10       30.55F WCI -19
SHEYENNE NWR     N/A     -1  -8  70 W6        29.95S WCI -13
BUFFALO        NOT AVBL
WYNDMERE       NOT AVBL
 ***** THE ABOVE OBSERVATIONS ARE NON NWS ARE NOT QUALITY
       CONTROLLED AND MAY MIS-REPORT RAIN FOR SNOW...
$$

  *****  WEATHER ACROSS NORTHERN MINNESOTA  *****

CITY           SKY/WX    TMP DP  RH WIND       PRES   REMARKS
FLAG ISLAND    CLOUDY     1  -2  85 W13       30.49F WCI -16
WARROAD        CLOUDY     3  -2  78 NW9       30.51F WCI -11
ROSEAU         CLOUDY     3   0  85 W5        30.52F WCI  -6
HALLOCK        CLOUDY     7   1  78 N8        30.55F WCI  -6
THF RVR FALLS  FLURRIES   6   2  83 CALM      30.53F
HALSTAD          N/A      7   1  78 NW9         N/A  WCI  -7
FOSSTON        CLOUDY     3   0  85 CALM      30.52S
BAUDETTE       CLOUDY     4  -4  69 W16       30.48F WCI -15
WASKISH        CLOUDY     5   1  85 NW9       30.49F WCI  -9
CROOKSTON      FLURRIES   9   3  78 NW12      30.56F WCI  -6
$$
  *****  WEATHER ACROSS CENTRAL AND WEST MINNESOTA  *****

CITY           SKY/WX    TMP DP  RH WIND       PRES   REMARKS
BEMIDJI        CLOUDY     4   0  82 NW6       30.49S WCI  -7
PARK RAPIDS    CLOUDY     7   1  76 NW8       30.48F WCI  -6
WADENA         FLURRIES   7   3  85 W7        30.49F WCI  -5
DETROIT LAKES  FLURRIES   7   5  92 W5        30.51F WCI  -2
MOORHEAD       MIX PCPN   7   1  78 W6        30.57S WCI  -3
FERGUS FALLS   CLOUDY     3   0  85 NW7       30.60F WCI  -9
ELBOW LAKE     FLURRIES   3  -1  86 NW6       30.55F WCI  -8
MORRIS MN      CLOUDY     3  -2  78 NW7       30.54F WCI  -9
STAPLES        FLURRIES   9   5  85 W6        30.50S WCI  -1
WHEATON        CLOUDY     3  -2  78 W7        30.59F WCI  -9
$$
  *****  WEATHER ELSEWHERE ACROSS MINNESOTA  *****

CITY           SKY/WX    TMP DP  RH WIND       PRES   REMARKS
DULUTH         LGT SNOW  12   7  80 NW7       30.42F WCI   1
INTRNTL FALLS  CLOUDY     8   3  80 W7        30.46S WCI  -3
ELY            FLURRIES  10   7  85 W5        30.40S WCI   2
CLOQUET        FLURRIES  12   7  79 NW3       30.44S
BRAINERD       CLOUDY    10   5  80 NW8       30.49F WCI  -2
HIBBING        PTCLDY     7   2  80 NW9       30.44S WCI  -7
ALEXANDRIA     CLOUDY     5   2  87 W8        30.51F WCI  -8
SAINT CLOUD    CLOUDY    10   6  84 W8        30.52F WCI  -2
MINNEAPOLIS    CLOUDY    14   9  80 W7        30.54S WCI   4
$$

  *****  WEATHER ACROSS SOUTH DAKOTA  *****

CITY           SKY/WX    TMP DP  RH WIND       PRES   REMARKS
SIOUX FALLS    PTCLDY     0  -3  87 W3        30.56F
BROOKINGS      CLEAR     -3  -7  82 NW3       30.52F
WATERTOWN      CLEAR     -4  -8  83 W5        30.50F WCI -15
HURON          CLOUDY    -4  -7  87 CALM      30.58F
SISSETON         N/A     -3  -8  79 NW6       30.55F WCI -15
ABERDEEN       CLOUDY    -8 -13  78 W7        30.59S WCI -23
MITCHELL       CLOUDY    -2  -6  83 CALM      30.59F
PIERRE         CLOUDY     2  -3  80 E6        30.52F WCI  -9
MOBRIDGE       CLOUDY    -3  -9  75 N6        30.51F WCI -15
RAPID CITY     CLOUDY     0  -5  79 NE12      30.30F WCI -17
$$

  *****  SOME WEATHER IN NEARBY STATES *****

CITY           SKY/WX    TMP DP  RH WIND       PRES   REMARKS
GLASGOW MT     CLOUDY    -3  -8  79 E7        30.49S WCI -16
GREAT FALLS MT CLOUDY    -3  -8  79 N3        30.30R
CHEYENNE WY    CLOUDY    14   6  70 E6        29.98F WCI   5
SCOTTSBLUFF NE CLOUDY    13   7  77 E15       30.14F WCI  -3
OMAHA NE       CLEAR      8   2  76 N5        30.63F WCI   0
DES MOINES IA  CLEAR     12   6  77 NW8       30.61R WCI   0
DAVENPORT IA   CLOUDY    17  11  77 W13       30.55R WCI   4
CHICAGO IL     CLOUDY    22  16  78 W9        30.45S WCI  12
EAU CLAIRE WI  CLEAR     12   8  84 NW6       30.50R WCI   3
LA CROSSE WI   CLOUDY    22  13  68 NW10      30.52R WCI  11
$$

  *****  SOME NATIONAL WEATHER *****

CITY           SKY/WX    TMP DP  RH WIND       PRES   REMARKS
LA GUARDIA NY  PTCLDY    34  18  52 W13G25    30.05R WCI  25
RALEIGH NC     CLEAR     31  15  52 CALM      30.31R
ATLANTA GA     CLEAR     28  16  60 NW12      30.40R WCI  18
NEW ORLEANS LA CLOUDY    41  31  67 N15G21    30.48R
OKLAHOMA CITY  CLOUDY    20  10  65 E6        30.62F WCI  12
ALBUQUERQUE NM CLOUDY    26  18  71 N3        30.35F
SALT LAKE CITY CLOUDY    30  25  81 SE8       30.17F WCI  22
LOS ANGELES CA MOCLDY    54  52  93 E3        30.27R
BOISE ID       MOCLDY    25  23  92 CALM      30.14S
SEATTLE WA     LGT SNOW  31  30  96 CALM      29.97R FOG
$$

*** WEATHER ACROSS MANITOBA...SASKATCHEWAN AND ONTARIO ***
                ***ONTARIO***

CITY           SKY/WX    TMP DP  RH WIND       PRES   REMARKS
GERALDTON      FLURRIES   9   5  85 NW7       30.32R WCI  -3
THUNDER BAY    FLURRIES  14   7  73 NW7       30.42R WCI   4
SIOUX LOOKOUT  NOT AVBL
TORONTO        PTCLDY    21  12  68 NW9       30.15R WCI  11
BIG TROUT LK   FLURRIES  -2  -6  84 NW13      30.41S WCI -21
PICKLE LAKE    FLURRIES   1  -2  85 NW7       30.36  WCI -11
DRYDEN         FLURRIES   7   5  92 W7        30.40S WCI  -5
KENORA         FLURRIES   5   1  85 W8        30.43F WCI  -8
$$
                *** MANITOBA***

CITY           SKY/WX    TMP DP  RH WIND       PRES   REMARKS
BRANDON        CLEAR    -15 -22  70 NW10      30.54S WCI -35
DAUPHIN        FLURRIES  -6 -11  77 W6        30.59F WCI -18
ISLAND LAKE    NOT AVBL
PILOT MOUND      N/A    -11 -15  84 NW8         N/A  WCI -28
THE PAS        FLURRIES  -4  -9  77 NW15      30.62S WCI -25
THOMPSON       FLURRIES -24 -29  76 W2        30.60R
WINNIPEG       CLOUDY     1  -6  71 W15       30.57F WCI -18
LYNN LAKE      MOCLDY   -17 -20  83 N6        30.62S WCI -31
CHURCHILL      FLURRIES  -2  -6  84 NW17G26   30.52S WCI -24
GILLAM         PTCLDY   -18 -24  76 NW9       30.56S WCI -38
$$
                ***SASKATCHEWAN***

CITY           SKY/WX    TMP DP  RH WIND       PRES   REMARKS
ESTEVAN        CLEAR    -22 -26  83 W9        30.54S WCI -42
KINDERSLEY     CLOUDY    -9 -15  77 SE2       30.54S
LLOYDMINSTER   CLOUDY   -15 -20  76 CALM      30.56F
PRINCE ALBERT  CRYSTALS -17 -24  70 W2        30.64F
REGINA         CLEAR    -17 -20  83 NW5       30.57R WCI -29
YORKTON        CLOUDY   -13 -17  84 W7        30.55S WCC1F1C2F2C3F3C4F4C5F5C6F6C7F7C8F8C9F9CaFaCbFbCcFcCdFdCe!


USA.gov is the U.S. government's official web portal to all federal, state and local government web resources and services.